z/d,0,0,50,50,100,100,200,200,300,300,400,400,500,500,750,750,1000,1000,2000,2000,3000,3000,4000,4000,4700,4700
2016.10.18-01:00,1.11,51.72,.96,77.92,.87,72.43,.85,74.65,.85,74.17,.75,73.71,.68,75.01,.56,65.78,.35,56.53,.16,65.18,.18,37.03,.25,39.04,.02,90.00
2016.10.18-02:00,1.18,59.50,.96,80.45,.85,71.59,.82,72.70,.82,73.56,.71,73.28,.63,75.41,.54,68.73,.36,59.03,.13,64.09,.15,30.84,.21,33.62,.01,90.00
2016.10.18-03:00,1.21,66.98,.93,82.91,.83,70.16,.78,69.60,.78,72.30,.68,72.31,.58,74.83,.50,72.79,.35,63.90,.10,63.73,.11,20.42,.17,25.61,.00,270.00
2016.10.18-04:00,1.18,73.24,.86,84.07,.81,67.83,.77,65.96,.76,70.69,.65,71.00,.54,73.22,.46,77.74,.33,70.93,.07,65.00,.09,5.04,.14,15.20,.01,270.00
2016.10.18-05:00,1.10,78.70,.75,83.30,.79,65.45,.76,63.11,.74,69.55,.64,70.00,.52,71.14,.42,82.60,.31,78.91,.05,70.41,.08,352.40,.12,7.51,.02,270.00
2016.10.18-06:00,1.00,83.85,.67,80.36,.80,64.50,.78,62.09,.74,69.36,.64,69.65,.52,69.24,.38,85.81,.28,85.82,.04,80.45,.07,351.72,.11,8.29,.02,270.00
2016.10.18-07:00,.91,88.84,.63,76.45,.83,65.80,.82,63.11,.76,70.18,.66,70.01,.55,68.17,.35,86.00,.25,89.61,.04,86.88,.07,4.42,.11,17.13,.01,270.00
2016.10.18-08:00,.81,93.69,.61,73.14,.86,68.92,.86,65.63,.78,71.73,.69,71.00,.59,68.30,.34,83.34,.24,89.22,.06,83.93,.08,22.61,.13,28.00,.00,270.00
2016.10.18-09:00,.68,97.67,.60,69.57,.88,72.23,.89,68.23,.80,72.85,.72,71.51,.63,68.70,.34,78.21,.23,84.51,.08,79.08,.11,36.67,.15,36.43,.01,90.00
2016.10.18-10:00,.54,99.41,.60,66.27,.87,75.39,.92,70.70,.82,73.62,.74,71.64,.67,69.56,.36,72.93,.24,77.70,.10,74.45,.14,44.24,.18,40.49,.01,90.00
2016.10.18-11:00,.44,97.20,.62,64.03,.86,78.11,.94,72.94,.83,74.19,.76,71.69,.70,70.97,.39,69.44,.26,72.20,.11,71.01,.15,47.30,.19,40.57,.02,90.00
2016.10.18-12:00,.36,87.16,.68,62.85,.85,79.85,.95,74.62,.83,74.28,.76,71.45,.71,72.39,.41,67.34,.27,68.81,.11,68.67,.15,47.30,.20,37.39,.02,90.00
2016.10.18-13:00,.35,70.07,.75,63.07,.83,80.64,.95,75.82,.82,74.04,.76,71.18,.70,73.84,.41,66.39,.27,67.53,.10,67.39,.14,44.15,.19,30.79,.01,90.00
2016.10.18-14:00,.40,54.36,.83,64.10,.81,80.26,.93,76.40,.80,73.43,.74,71.04,.67,75.33,.40,66.50,.27,67.92,.08,66.03,.11,36.34,.17,20.76,.00,270.00
2016.10.18-15:00,.50,44.55,.89,65.32,.79,78.79,.90,76.34,.78,72.52,.73,71.11,.63,76.78,.38,67.64,.26,69.96,.05,63.68,.08,21.01,.15,9.04,.01,270.00
2016.10.18-16:00,.60,38.86,.93,66.43,.76,76.53,.86,75.63,.76,71.26,.71,71.17,.59,77.51,.36,69.10,.24,73.24,.03,57.67,.05,353.45,.14,358.15,.02,270.00
2016.10.18-17:00,.70,35.44,.93,67.98,.74,74.38,.84,74.83,.76,70.18,.71,71.39,.57,77.17,.34,70.17,.23,76.98,.01,37.92,.05,325.10,.13,351.70,.02,270.00
2016.10.18-18:00,.77,35.95,.92,70.65,.74,73.17,.83,74.76,.77,69.99,.73,72.16,.57,76.25,.33,70.48,.22,79.98,.01,21.49,.05,317.00,.12,353.53,.02,270.00
2016.10.18-19:00,.79,40.02,.90,73.61,.74,72.54,.84,75.06,.80,70.13,.75,72.83,.58,74.78,.33,69.35,.21,80.43,.02,45.46,.05,335.61,.13,6.37,.01,270.00
2016.10.18-20:00,.84,43.36,.88,76.39,.76,72.71,.85,75.78,.83,70.66,.78,73.66,.61,73.79,.34,67.64,.21,77.86,.05,54.02,.06,10.34,.15,23.48,.00,90.00
2016.10.18-21:00,.90,47.02,.87,79.08,.79,74.04,.87,76.84,.87,71.53,.82,74.71,.65,73.65,.38,65.88,.22,72.53,.09,55.29,.10,30.11,.19,35.97,.01,90.00
2016.10.18-22:00,.95,53.78,.85,81.44,.82,75.83,.88,77.58,.90,72.19,.84,75.45,.69,73.74,.43,63.89,.26,65.96,.13,55.15,.14,38.61,.23,43.24,.03,90.00
2016.10.18-23:00,1.00,59.79,.84,83.62,.84,77.84,.89,78.15,.93,73.20,.86,76.39,.72,74.37,.48,62.54,.30,61.22,.16,55.25,.17,41.64,.25,46.28,.03,90.00
2016.10.18-24:00,1.05,65.06,.82,85.08,.83,79.09,.89,78.33,.95,74.52,.87,77.46,.72,75.17,.52,61.68,.34,58.75,.18,55.98,.19,41.82,.26,46.20,.03,90.00
2016.10.19-01:00,1.08,71.69,.81,85.68,.82,78.95,.88,77.79,.95,75.91,.85,78.51,.70,75.81,.55,61.74,.38,58.73,.18,57.25,.19,39.67,.25,43.43,.03,90.00
2016.10.19-02:00,1.11,78.13,.82,85.70,.80,77.41,.86,76.10,.93,76.81,.81,79.24,.66,75.97,.55,63.27,.39,61.08,.17,58.92,.17,34.96,.22,38.04,.02,90.00
2016.10.19-03:00,1.13,83.34,.82,85.63,.79,75.21,.83,73.16,.89,76.83,.76,79.30,.61,75.26,.54,66.39,.39,65.44,.15,61.03,.15,27.93,.19,30.39,.00,90.00
2016.10.19-04:00,1.09,88.17,.79,85.27,.78,73.05,.81,69.30,.84,75.86,.71,78.34,.56,73.21,.51,70.85,.37,71.72,.11,64.28,.12,18.66,.16,20.63,.01,270.00
2016.10.19-05:00,.98,93.08,.71,83.89,.76,71.14,.81,65.76,.81,74.39,.68,76.46,.54,70.09,.48,75.95,.35,79.40,.08,69.80,.10,8.02,.13,9.26,.02,270.00
2016.10.19-06:00,.84,96.88,.65,81.45,.75,70.65,.84,64.64,.80,73.87,.67,74.94,.54,67.57,.45,80.87,.32,87.50,.06,77.88,.09,.93,.12,.66,.02,270.00
2016.10.19-07:00,.72,97.72,.62,79.01,.77,72.10,.88,65.96,.81,74.33,.68,73.77,.57,65.69,.41,83.79,.28,94.32,.06,88.28,.08,5.06,.11,1.62,.02,270.00
2016.10.19-08:00,.65,97.62,.62,78.22,.79,75.43,.91,68.90,.82,75.41,.69,72.87,.61,64.64,.38,83.50,.24,97.72,.06,95.26,.09,19.85,.12,11.51,.02,270.00
2016.10.19-09:00,.59,97.78,.61,78.37,.80,79.59,.94,72.59,.83,76.67,.72,72.32,.67,65.00,.37,80.51,.21,95.35,.07,94.92,.10,33.73,.14,21.89,.01,270.00
2016.10.19-10:00,.47,99.63,.59,77.80,.79,83.19,.95,75.99,.84,77.33,.75,71.65,.73,66.07,.38,75.87,.20,85.90,.08,89.70,.13,43.34,.17,29.65,.00,90.00
2016.10.19-11:00,.30,93.78,.59,76.68,.77,85.77,.96,78.97,.84,77.53,.78,71.25,.77,67.90,.40,71.69,.20,73.62,.09,83.74,.15,48.56,.19,33.42,.01,90.00
2016.10.19-12:00,.21,58.69,.60,74.89,.75,86.69,.96,81.22,.85,77.46,.80,71.51,.80,70.46,.43,69.46,.23,64.88,.09,78.21,.15,49.95,.20,33.17,.01,90.00
2016.10.19-13:00,.29,27.40,.62,73.17,.73,85.94,.96,82.60,.85,77.35,.81,72.49,.81,73.54,.45,69.37,.25,60.95,.08,72.71,.14,47.83,.20,29.48,.01,90.00
2016.10.19-14:00,.44,25.41,.66,72.90,.71,84.29,.94,83.09,.85,77.20,.81,73.79,.80,76.65,.45,70.76,.27,60.11,.06,64.34,.12,41.56,.19,23.25,.01,90.00
2016.10.19-15:00,.58,28.96,.71,73.63,.70,82.02,.90,82.46,.82,76.68,.79,74.84,.76,79.30,.44,73.19,.28,60.92,.04,47.46,.09,29.76,.18,16.16,.00,270.00
2016.10.19-16:00,.70,32.94,.75,74.38,.69,79.32,.84,80.68,.79,75.38,.75,75.19,.70,81.21,.40,76.48,.28,63.00,.03,13.12,.06,9.73,.16,9.53,.01,270.00
2016.10.19-17:00,.78,37.83,.76,74.94,.68,76.85,.80,78.07,.77,73.35,.72,74.57,.64,81.92,.37,79.92,.28,66.42,.03,338.67,.05,340.01,.14,3.31,.01,270.00
2016.10.19-18:00,.83,43.14,.74,76.06,.67,75.67,.79,75.86,.77,71.62,.72,73.72,.62,81.59,.35,82.62,.28,70.91,.03,331.45,.06,319.16,.13,359.24,.02,270.00
2016.10.19-19:00,.89,48.46,.72,77.64,.68,75.97,.79,74.78,.80,70.57,.74,73.05,.62,80.43,.32,83.05,.27,74.80,.04,349.24,.06,323.52,.12,4.61,.01,270.00
2016.10.19-20:00,.98,55.76,.71,79.70,.70,77.73,.82,74.94,.84,70.29,.77,72.74,.63,78.83,.29,78.94,.25,75.95,.05,16.00,.06,350.31,.13,19.91,.00,270.00
2016.10.19-21:00,1.05,64.58,.72,82.15,.73,80.74,.85,76.40,.89,71.21,.81,73.40,.66,78.17,.30,72.18,.25,74.81,.08,33.70,.09,17.55,.15,33.79,.01,90.00
2016.10.19-22:00,1.06,71.13,.72,84.27,.75,83.85,.88,78.21,.94,72.62,.85,74.28,.70,78.00,.35,66.02,.27,72.30,.12,44.15,.12,31.17,.19,41.30,.02,90.00
2016.10.19-23:00,1.08,77.40,.71,86.40,.75,86.63,.90,79.87,.98,74.17,.88,74.84,.74,77.36,.41,61.23,.30,68.83,.15,50.76,.16,37.79,.22,44.65,.02,90.00
2016.10.19-24:00,1.09,83.84,.69,88.59,.73,88.52,.91,81.01,1.01,75.82,.89,75.24,.75,76.27,.49,58.19,.34,65.73,.18,55.47,.19,41.23,.24,45.50,.02,90.00
2016.10.20-01:00,1.11,89.36,.67,89.96,.70,88.36,.91,81.10,1.02,77.48,.90,75.83,.75,75.23,.54,57.46,.37,64.19,.19,59.04,.20,42.05,.24,43.92,.02,90.00
2016.10.20-02:00,1.14,93.79,.66,90.49,.68,86.27,.90,80.39,1.03,79.32,.89,77.08,.73,75.07,.58,59.69,.39,65.05,.19,61.54,.20,39.80,.23,39.14,.02,90.00
2016.10.20-03:00,1.13,98.28,.64,90.01,.66,82.47,.89,78.42,1.01,80.53,.87,77.95,.70,75.03,.58,63.81,.39,67.69,.17,64.04,.18,35.89,.21,32.18,.01,90.00
2016.10.20-04:00,1.10,103.35,.63,89.85,.65,78.87,.87,75.59,.96,80.72,.82,77.67,.65,73.99,.57,68.78,.38,71.47,.15,67.35,.16,30.79,.19,23.41,.01,270.00
2016.10.20-05:00,1.01,109.88,.58,90.17,.64,75.92,.84,72.27,.90,79.62,.77,75.69,.61,71.24,.54,74.01,.37,76.44,.12,73.41,.13,24.15,.16,12.39,.02,270.00
2016.10.20-06:00,.89,117.37,.51,89.27,.63,73.36,.84,69.60,.86,78.13,.74,73.40,.60,68.71,.51,79.62,.35,82.88,.10,83.02,.10,15.68,.15,.68,.02,270.00
2016.10.20-07:00,.79,124.75,.48,86.55,.64,72.38,.86,68.77,.84,77.29,.75,72.17,.62,67.47,.47,84.20,.31,89.28,.08,94.47,.09,12.60,.15,356.78,.02,270.00
2016.10.20-08:00,.69,132.82,.47,83.88,.67,73.50,.88,69.73,.84,77.03,.78,71.69,.65,66.79,.42,85.17,.25,92.82,.07,104.21,.09,20.04,.15,3.09,.02,270.00
2016.10.20-09:00,.63,144.44,.47,82.78,.69,76.89,.91,72.51,.85,77.53,.81,72.26,.70,67.39,.38,82.62,.20,91.14,.06,106.69,.10,31.60,.16,14.35,.01,270.00
2016.10.20-10:00,.56,158.95,.46,81.09,.71,80.50,.93,75.75,.87,77.89,.85,73.07,.76,68.58,.37,77.93,.18,83.36,.06,99.49,.12,40.52,.18,24.43,.00,90.00
2016.10.20-11:00,.49,178.00,.45,77.85,.70,83.41,.95,78.82,.88,77.89,.89,73.80,.80,69.74,.38,72.42,.18,71.79,.06,84.91,.13,46.53,.20,31.64,.02,90.00
2016.10.20-12:00,.40,200.21,.44,73.19,.69,85.33,.96,81.59,.90,78.20,.91,75.21,.84,71.49,.42,68.25,.21,62.26,.06,68.67,.14,49.40,.21,35.36,.02,90.00
2016.10.20-13:00,.32,229.24,.44,66.90,.67,85.49,.95,83.46,.91,78.82,.94,77.34,.86,73.94,.46,66.93,.26,58.17,.06,54.17,.14,49.00,.21,35.35,.02,90.00
2016.10.20-14:00,.26,261.02,.49,64.89,.67,85.26,.94,84.64,.92,79.93,.94,80.16,.86,77.09,.49,68.39,.30,58.47,.06,38.54,.13,43.73,.21,31.08,.02,90.00
2016.10.20-15:00,.22,306.74,.56,66.71,.67,84.45,.91,84.29,.90,80.27,.91,82.58,.83,79.89,.50,71.11,.32,60.58,.06,25.24,.11,34.32,.19,24.55,.01,90.00
2016.10.20-16:00,.27,359.38,.66,70.73,.69,83.38,.87,82.02,.86,79.11,.85,83.98,.76,81.87,.48,74.30,.34,63.00,.06,15.32,.09,20.84,.17,17.41,.00,90.00
2016.10.20-17:00,.39,31.26,.70,74.65,.68,82.31,.83,78.36,.83,76.64,.79,84.18,.70,82.87,.45,77.85,.34,66.01,.05,9.23,.07,1.87,.15,9.70,.01,270.00
2016.10.20-18:00,.41,46.72,.69,77.39,.64,80.64,.81,74.63,.82,74.12,.77,83.85,.67,83.26,.42,81.81,.34,70.46,.05,8.44,.07,341.22,.14,1.71,.02,270.00
2016.10.20-19:00,.44,58.13,.68,79.05,.63,78.65,.82,72.19,.84,72.55,.76,83.39,.65,83.07,.37,85.13,.32,75.31,.05,14.52,.07,337.43,.13,1.24,.02,270.00
2016.10.20-20:00,.51,66.78,.69,81.13,.64,77.82,.86,71.87,.88,71.99,.76,82.19,.63,81.25,.32,84.51,.28,78.36,.07,25.42,.07,352.20,.13,11.35,.01,270.00
2016.10.20-21:00,.57,74.56,.70,84.74,.67,78.42,.90,73.90,.92,72.51,.76,80.32,.64,78.02,.28,77.30,.25,78.19,.09,35.96,.08,15.07,.14,25.71,.00,270.00
2016.10.20-22:00,.63,82.36,.72,89.65,.70,79.93,.94,77.59,.97,73.73,.79,78.39,.67,74.85,.30,67.88,.24,75.96,.11,43.76,.11,30.32,.17,35.49,.01,90.00
2016.10.20-23:00,.66,89.12,.71,94.51,.73,81.49,.97,81.30,1.01,74.74,.82,76.45,.73,72.32,.37,61.72,.26,72.78,.14,49.94,.14,37.98,.19,40.13,.01,90.00
2016.10.20-24:00,.66,94.59,.67,97.91,.74,82.30,.97,83.95,1.04,75.48,.84,74.78,.78,70.57,.45,58.23,.29,68.66,.17,55.16,.17,42.47,.22,42.31,.02,90.00
2016.10.21-01:00,.62,97.94,.60,97.88,.73,81.25,.94,84.94,1.06,76.49,.86,73.92,.82,69.89,.53,56.85,.33,65.05,.19,59.89,.19,44.55,.23,42.29,.02,90.00
2016.10.21-02:00,.60,99.33,.56,94.11,.73,78.80,.92,84.58,1.07,78.44,.87,74.53,.84,70.76,.59,58.30,.37,63.96,.19,63.95,.20,42.88,.23,38.30,.02,90.00
2016.10.21-03:00,.59,99.36,.55,88.69,.73,75.27,.89,82.84,1.06,80.52,.85,75.34,.83,72.26,.63,61.77,.40,65.34,.19,68.07,.19,38.61,.22,31.11,.01,90.00
2016.10.21-04:00,.60,99.28,.57,84.78,.75,72.13,.85,79.24,1.01,81.38,.81,74.60,.80,73.04,.63,66.12,.41,68.06,.17,72.61,.18,33.71,.21,23.19,.00,270.00
2016.10.21-05:00,.59,100.87,.57,82.88,.77,71.27,.82,74.17,.96,80.36,.77,71.65,.76,72.66,.62,71.22,.42,71.85,.15,77.68,.16,28.04,.20,14.99,.01,270.00
2016.10.21-06:00,.55,103.15,.54,79.90,.78,71.72,.83,68.96,.91,78.16,.76,68.01,.73,72.34,.59,77.38,.41,77.12,.12,83.88,.14,21.75,.19,7.41,.01,270.00
2016.10.21-07:00,.51,101.73,.55,76.18,.81,72.74,.86,65.21,.89,75.80,.77,65.34,.71,72.52,.53,83.58,.36,82.80,.09,91.52,.13,19.81,.18,5.69,.01,270.00
2016.10.21-08:00,.49,99.11,.58,74.31,.85,75.06,.91,64.33,.89,74.33,.80,64.39,.70,72.69,.45,87.09,.29,85.96,.07,99.21,.12,23.82,.18,9.82,.01,270.00
2016.10.21-09:00,.45,96.91,.59,73.41,.85,78.31,.96,66.35,.91,74.47,.86,65.51,.73,73.24,.40,86.20,.23,83.86,.05,100.51,.12,31.15,.18,16.63,.00,90.00
2016.10.21-10:00,.39,91.94,.58,71.49,.83,81.05,1.00,69.93,.94,75.36,.92,67.45,.77,73.89,.37,82.16,.20,77.84,.04,86.64,.12,39.01,.19,23.75,.01,90.00
2016.10.21-11:00,.32,82.95,.57,68.10,.79,82.32,1.03,73.89,.97,76.13,.98,69.08,.81,74.02,.37,76.89,.20,71.78,.04,61.58,.13,45.31,.20,29.45,.02,90.00
2016.10.21-12:00,.28,68.77,.57,65.35,.75,82.30,1.04,77.92,1.00,76.91,1.02,70.50,.84,73.82,.40,71.47,.21,66.35,.05,44.90,.14,49.83,.21,33.48,.02,90.00
2016.10.21-13:00,.32,56.96,.62,64.79,.75,81.31,1.05,81.76,1.02,78.26,1.06,72.56,.87,74.45,.43,67.82,.24,62.31,.07,34.75,.14,51.35,.21,34.61,.02,90.00
2016.10.21-14:00,.41,52.12,.69,64.73,.77,79.36,1.04,84.60,1.02,80.00,1.07,75.42,.87,76.36,.47,67.13,.28,61.35,.08,29.10,.13,48.92,.21,32.07,.02,90.00
2016.10.21-15:00,.53,52.77,.75,65.27,.79,77.37,1.00,85.89,.99,81.51,1.04,78.46,.84,78.88,.50,68.31,.32,62.73,.09,29.01,.11,42.21,.20,26.51,.01,90.00
2016.10.21-16:00,.66,56.28,.83,67.17,.83,76.16,.94,84.95,.94,81.71,.98,80.76,.78,80.90,.50,69.82,.35,64.83,.09,32.89,.10,31.32,.19,19.68,.00,90.00
2016.10.21-17:00,.75,60.44,.90,70.81,.87,76.68,.88,82.17,.88,80.33,.91,82.09,.71,82.09,.49,71.24,.37,66.70,.09,36.99,.08,15.96,.17,12.99,.00,270.00
2016.10.21-18:00,.80,63.55,.93,74.72,.90,78.05,.85,78.01,.85,77.88,.85,82.65,.66,82.65,.47,73.21,.36,69.13,.08,39.75,.07,359.28,.16,7.96,.01,270.00
2016.10.21-19:00,.86,66.08,.95,77.61,.92,79.66,.85,73.66,.84,75.44,.82,82.96,.63,82.81,.42,76.04,.34,73.11,.08,42.13,.08,351.80,.15,7.57,.01,270.00
2016.10.21-20:00,.91,68.80,.96,80.06,.92,81.69,.88,70.93,.86,73.94,.81,82.94,.61,81.70,.38,77.69,.30,77.13,.08,45.65,.09,355.62,.15,12.34,.01,270.00
2016.10.21-21:00,.96,72.51,.96,83.00,.92,84.00,.93,71.20,.91,74.30,.84,82.65,.63,79.18,.36,75.78,.27,78.11,.08,47.57,.09,5.68,.16,20.42,.00,270.00
2016.10.21-22:00,.98,76.98,.94,86.17,.90,85.95,.99,74.06,.96,75.83,.87,82.05,.68,76.14,.37,71.80,.25,76.11,.09,48.82,.11,18.43,.17,29.33,.00,90.00
2016.10.21-23:00,.99,81.83,.91,89.07,.86,86.71,1.04,78.19,1.00,77.35,.90,80.68,.74,73.13,.42,68.85,.26,74.18,.11,51.74,.13,28.04,.18,34.83,.01,90.00
2016.10.21-24:00,.99,86.80,.87,91.27,.83,85.93,1.06,82.21,1.02,78.10,.92,78.27,.80,70.18,.47,66.93,.29,72.69,.14,56.22,.16,34.70,.20,37.14,.01,90.00
2016.10.22-01:00,1.01,91.44,.86,92.55,.82,84.05,1.06,85.16,1.02,78.14,.93,75.50,.85,67.91,.53,65.30,.31,70.09,.16,60.69,.19,39.57,.22,37.58,.01,90.00
2016.10.22-02:00,1.03,94.88,.86,92.48,.83,81.54,1.02,86.49,1.01,77.97,.94,73.79,.88,67.35,.58,64.79,.33,67.24,.18,64.55,.21,42.41,.23,35.90,.01,90.00
2016.10.22-03:00,1.03,96.58,.87,91.08,.85,78.61,.98,85.98,1.00,78.13,.95,74.07,.90,69.10,.61,66.63,.37,66.59,.19,67.70,.21,42.13,.23,30.77,.01,90.00
2016.10.22-04:00,1.00,97.08,.87,89.15,.87,75.42,.93,83.18,.98,77.84,.95,75.21,.90,71.82,.63,70.06,.40,68.33,.18,70.91,.21,39.77,.23,23.65,.00,90.00
2016.10.22-05:00,.94,98.25,.86,88.18,.90,73.45,.90,78.78,.96,76.67,.94,76.22,.88,74.35,.63,74.02,.42,71.03,.17,73.85,.19,36.37,.23,16.77,.00,270.00
2016.10.22-06:00,.89,99.47,.85,87.45,.94,72.69,.89,73.97,.95,75.18,.92,77.05,.84,76.39,.59,78.01,.41,73.43,.15,75.48,.18,33.75,.23,12.99,.00,270.00
2016.10.22-07:00,.83,99.14,.87,86.83,.98,72.48,.92,70.32,.95,73.93,.90,77.52,.78,77.73,.52,82.10,.37,75.56,.12,75.58,.16,33.52,.23,13.68,.00,90.00
2016.10.22-08:00,.73,96.73,.86,86.58,1.01,72.85,.96,68.80,.95,73.01,.88,77.29,.75,77.94,.46,85.48,.32,77.82,.09,75.66,.15,34.05,.23,16.03,.01,90.00
2016.10.22-09:00,.68,96.62,.84,86.58,1.01,74.57,1.00,70.09,.98,73.10,.89,77.02,.75,77.49,.41,86.12,.28,78.05,.07,73.65,.14,35.01,.22,19.27,.01,90.00
2016.10.22-10:00,.62,96.05,.82,86.46,1.01,77.55,1.03,73.55,1.01,74.12,.91,77.16,.77,77.10,.38,83.22,.25,74.05,.06,63.87,.13,38.16,.22,24.41,.02,90.00
2016.10.22-11:00,.51,89.93,.80,85.84,1.00,80.96,1.06,77.44,1.04,75.17,.95,77.24,.80,76.68,.37,78.01,.23,68.34,.06,50.34,.13,42.13,.22,29.75,.02,90.00
2016.10.22-12:00,.41,77.34,.80,85.41,.98,84.21,1.06,80.31,1.07,75.72,.97,76.86,.84,75.71,.39,72.05,.24,64.83,.07,44.83,.13,45.08,.22,33.51,.03,90.00
2016.10.22-13:00,.40,64.92,.84,86.89,.98,87.56,1.07,82.32,1.10,76.72,1.00,77.00,.86,74.81,.42,66.35,.26,62.75,.08,43.84,.13,45.30,.22,34.56,.03,90.00
2016.10.22-14:00,.45,59.23,.90,89.99,.99,90.16,1.09,83.90,1.13,78.78,1.02,78.37,.88,74.91,.46,62.65,.30,61.73,.09,43.73,.13,42.16,.22,32.60,.02,90.00
2016.10.22-15:00,.49,48.45,.92,92.68,.99,91.02,1.07,84.71,1.13,81.31,1.00,80.36,.86,76.02,.50,61.88,.34,62.62,.10,45.62,.12,37.21,.21,28.92,.02,90.00
2016.10.22-16:00,.57,43.91,.89,93.53,.97,90.62,1.03,84.02,1.10,83.29,.96,82.17,.83,77.56,.53,63.67,.37,65.61,.11,48.38,.12,30.14,.21,23.50,.01,90.00
2016.10.22-17:00,.68,53.15,.84,93.61,.95,90.40,.99,82.09,1.05,84.02,.91,83.11,.79,78.64,.55,66.53,.40,69.21,.12,50.99,.12,21.96,.20,17.54,.01,90.00
2016.10.22-18:00,.74,62.52,.81,93.84,.93,90.35,.99,79.86,1.02,83.45,.87,82.92,.76,78.77,.56,69.21,.41,72.12,.11,51.90,.11,15.66,.19,13.81,.00,90.00
2016.10.22-19:00,.79,70.02,.82,92.37,.93,89.85,1.00,78.00,1.00,82.18,.84,82.06,.73,78.52,.53,72.49,.38,75.30,.10,50.96,.11,13.33,.19,13.65,.00,90.00
2016.10.22-20:00,.88,77.83,.83,89.19,.92,88.97,1.02,77.08,.99,80.72,.83,80.95,.72,78.34,.50,77.01,.35,79.46,.09,49.50,.12,13.13,.19,15.04,.00,90.00
2016.10.22-21:00,.94,82.57,.86,86.34,.93,88.49,1.05,77.82,1.00,79.93,.85,80.07,.74,78.33,.49,80.98,.32,82.66,.09,46.82,.12,14.71,.19,17.63,.00,90.00
2016.10.22-22:00,.95,85.51,.87,84.81,.93,88.93,1.08,79.73,1.03,79.76,.88,79.23,.78,78.07,.48,82.44,.29,82.81,.09,44.89,.13,20.40,.19,22.95,.01,90.00
2016.10.22-23:00,.90,88.20,.85,84.25,.91,89.79,1.10,81.85,1.06,79.93,.91,78.12,.83,77.45,.47,81.81,.27,80.74,.11,47.34,.14,28.06,.19,28.73,.01,90.00
2016.10.22-24:00,.83,91.37,.81,84.75,.87,90.37,1.10,83.59,1.09,80.45,.93,76.52,.87,76.34,.48,79.91,.27,78.20,.13,53.66,.16,34.18,.21,31.90,.02,90.00
2016.10.23-01:00,.82,94.91,.82,86.38,.86,90.06,1.10,84.80,1.11,81.36,.95,74.49,.89,74.82,.49,76.93,.28,74.99,.16,60.21,.18,38.27,.22,32.63,.02,90.00
2016.10.23-02:00,.86,98.13,.86,88.08,.88,89.08,1.10,85.64,1.11,82.61,.96,72.92,.91,73.85,.51,73.99,.31,71.22,.18,64.89,.20,40.81,.24,31.98,.02,90.00
2016.10.23-03:00,.88,100.85,.90,88.45,.90,87.55,1.09,85.66,1.09,83.59,.97,72.20,.91,73.99,.53,72.43,.34,68.35,.19,67.86,.21,42.40,.25,30.82,.02,90.00
2016.10.23-04:00,.87,104.75,.90,88.13,.90,85.73,1.07,84.28,1.08,83.49,.99,72.25,.92,75.23,.55,73.09,.37,67.72,.19,69.62,.21,42.28,.26,28.31,.02,90.00
2016.10.23-05:00,.83,112.18,.88,88.94,.89,83.79,1.06,81.52,1.06,81.90,1.02,72.68,.93,77.14,.57,75.32,.40,68.99,.19,70.88,.21,40.41,.27,24.33,.02,90.00
2016.10.23-06:00,.83,120.60,.86,91.53,.88,81.62,1.05,78.14,1.04,79.55,1.04,73.43,.91,79.29,.56,77.32,.41,70.00,.17,71.87,.20,38.43,.27,21.23,.02,90.00
2016.10.23-07:00,.85,127.45,.86,94.66,.91,79.15,1.06,74.92,1.03,77.13,1.03,74.22,.86,81.07,.51,77.93,.39,69.96,.16,72.49,.19,37.68,.27,20.67,.02,90.00
2016.10.23-08:00,.82,135.17,.82,96.15,.92,76.37,1.06,72.74,1.02,75.22,1.01,75.19,.82,82.28,.46,77.96,.37,70.64,.13,72.12,.18,36.90,.27,21.40,.02,90.00
2016.10.23-09:00,.72,141.71,.74,95.35,.94,74.87,1.08,72.64,1.04,74.57,1.02,76.59,.80,82.84,.43,77.70,.34,72.49,.11,68.30,.16,35.11,.26,22.61,.03,90.00
2016.10.23-10:00,.57,147.15,.67,93.19,.94,75.62,1.10,74.55,1.07,75.09,1.05,77.90,.81,82.25,.42,76.05,.32,73.76,.09,58.65,.15,33.72,.25,24.99,.03,90.00
2016.10.23-11:00,.37,153.32,.60,89.27,.94,77.72,1.11,77.48,1.12,76.26,1.08,78.82,.83,80.91,.42,73.59,.29,73.84,.09,46.05,.15,33.83,.25,28.48,.03,90.00
2016.10.23-12:00,.17,160.47,.56,82.26,.94,79.82,1.13,80.05,1.15,77.39,1.10,79.37,.85,79.56,.43,71.25,.27,72.90,.09,39.73,.14,35.42,.24,32.00,.04,90.00
2016.10.23-13:00,.02,152.13,.62,76.04,.96,82.07,1.14,81.76,1.18,78.51,1.11,80.16,.87,78.70,.45,68.66,.26,70.11,.11,40.58,.14,37.08,.23,34.13,.04,90.00
2016.10.23-14:00,.12,25.84,.74,74.85,1.01,84.92,1.15,82.78,1.20,80.13,1.11,81.76,.87,78.49,.48,65.96,.28,66.16,.12,44.86,.14,36.98,.23,33.65,.04,90.00
2016.10.23-15:00,.28,29.37,.82,75.25,1.03,87.36,1.15,83.04,1.21,82.18,1.10,83.81,.86,78.61,.52,64.45,.31,64.19,.13,51.47,.15,35.26,.22,30.77,.03,90.00
2016.10.23-16:00,.41,27.53,.84,74.72,1.01,89.08,1.12,82.54,1.18,84.09,1.07,85.76,.85,78.77,.57,64.92,.36,65.17,.14,58.24,.15,32.05,.22,26.11,.03,90.00
2016.10.23-17:00,.52,29.71,.85,74.33,.97,90.43,1.09,81.49,1.14,85.09,1.03,87.00,.83,78.50,.60,66.65,.39,67.29,.14,63.44,.15,28.48,.22,21.48,.02,90.00
2016.10.23-18:00,.63,39.92,.91,76.84,.96,91.71,1.09,80.33,1.10,84.85,.98,87.12,.80,77.41,.61,68.84,.41,69.10,.14,66.17,.15,25.93,.22,18.85,.02,90.00
2016.10.23-19:00,.75,52.33,1.00,80.93,.96,92.44,1.09,79.21,1.07,83.50,.94,86.22,.78,75.90,.60,71.89,.40,70.95,.12,66.23,.14,24.66,.23,18.62,.02,90.00
2016.10.23-20:00,.86,60.67,1.03,83.04,.92,91.52,1.10,78.12,1.05,81.63,.91,85.01,.78,75.29,.59,76.75,.38,74.14,.11,63.48,.14,23.28,.23,19.18,.02,90.00
2016.10.23-21:00,.94,66.30,1.04,82.71,.88,88.65,1.11,77.85,1.05,80.30,.90,84.13,.81,76.08,.58,82.35,.37,77.72,.09,56.37,.14,21.82,.22,20.08,.02,90.00
2016.10.23-22:00,.98,71.47,1.02,81.91,.85,85.30,1.13,79.06,1.07,80.05,.90,83.43,.85,77.37,.57,86.67,.34,79.55,.09,46.05,.14,22.55,.22,22.46,.02,90.00
2016.10.23-23:00,.97,76.84,.99,81.66,.84,82.54,1.14,81.06,1.10,80.31,.91,82.14,.89,78.21,.55,88.88,.32,79.35,.09,40.55,.14,26.03,.22,26.01,.03,90.00
2016.10.23-24:00,.94,82.52,.94,82.47,.83,81.32,1.13,83.14,1.12,80.70,.93,80.14,.92,78.36,.52,88.90,.30,77.98,.11,43.07,.15,30.17,.22,28.73,.03,90.00
2016.10.24-01:00,.92,88.79,.91,84.21,.85,81.75,1.13,84.69,1.14,81.03,.95,77.87,.94,77.99,.51,87.19,.30,76.38,.14,49.29,.16,33.42,.23,29.77,.03,90.00
2016.10.24-02:00,.92,95.33,.90,86.59,.89,83.30,1.12,85.24,1.15,81.17,.99,75.88,.95,77.37,.50,84.46,.32,75.04,.16,55.16,.17,35.54,.23,29.66,.03,90.00
2016.10.24-03:00,.94,101.84,.93,89.39,.93,85.11,1.11,84.59,1.16,81.03,1.02,74.43,.96,76.67,.50,81.45,.34,74.51,.18,60.07,.19,36.76,.25,29.02,.03,90.00
2016.10.24-04:00,.94,108.48,.94,92.52,.94,86.31,1.10,82.76,1.16,80.47,1.06,73.48,.97,76.05,.51,78.87,.36,74.84,.20,64.14,.20,37.16,.26,27.94,.03,90.00
2016.10.24-05:00,.91,115.18,.94,95.87,.93,86.40,1.10,80.46,1.16,79.60,1.09,73.19,.98,76.02,.53,77.35,.38,75.37,.20,67.24,.21,36.94,.28,26.67,.03,90.00
2016.10.24-06:00,.89,121.17,.95,99.27,.93,85.49,1.12,78.58,1.15,78.78,1.11,73.62,.98,76.92,.53,76.84,.39,75.26,.20,69.12,.22,36.74,.29,26.03,.03,90.00
2016.10.24-07:00,.88,126.28,.96,103.41,.94,84.46,1.13,77.38,1.14,77.91,1.11,74.35,.95,78.21,.51,76.30,.38,73.73,.19,69.91,.21,37.17,.29,26.64,.04,90.00
2016.10.24-08:00,.84,131.97,.92,108.00,.93,83.10,1.13,76.44,1.12,76.74,1.10,75.09,.93,79.45,.49,75.97,.37,72.03,.17,70.08,.20,37.55,.29,27.76,.04,90.00
2016.10.24-09:00,.73,139.80,.83,111.63,.91,81.35,1.13,76.08,1.10,75.79,1.09,76.15,.91,80.84,.47,76.62,.36,71.88,.14,69.25,.19,36.85,.28,28.53,.04,90.00
2016.10.24-10:00,.60,150.68,.71,113.27,.89,80.55,1.13,77.19,1.12,75.86,1.10,77.78,.91,82.40,.46,77.09,.34,72.33,.12,65.52,.17,35.16,.27,29.12,.04,90.00
2016.10.24-11:00,.48,167.07,.58,112.31,.88,80.96,1.13,79.43,1.14,76.65,1.12,79.50,.91,83.55,.45,76.10,.31,72.16,.10,58.59,.16,33.86,.25,30.26,.04,90.00
2016.10.24-12:00,.38,188.50,.46,106.72,.88,81.95,1.13,81.76,1.16,77.39,1.13,80.72,.91,83.92,.44,73.70,.29,71.62,.10,51.93,.15,33.64,.24,31.74,.05,90.00
2016.10.24-13:00,.33,211.12,.39,94.96,.89,83.23,1.13,83.42,1.18,77.87,1.12,81.52,.90,83.72,.44,70.51,.28,70.66,.10,48.84,.14,34.21,.23,32.78,.04,90.00
2016.10.24-14:00,.30,228.64,.38,81.17,.92,84.55,1.13,84.04,1.20,78.36,1.11,82.29,.88,83.26,.46,67.42,.28,69.46,.11,50.23,.14,34.60,.22,32.35,.04,90.00
2016.10.24-15:00,.28,246.73,.40,69.37,.94,85.74,1.12,83.93,1.21,79.19,1.10,83.18,.86,82.68,.49,65.71,.30,69.37,.13,55.24,.14,33.84,.22,29.66,.04,90.00
2016.10.24-16:00,.30,267.89,.40,54.31,.93,86.73,1.11,83.46,1.21,80.39,1.08,84.15,.84,81.99,.54,65.88,.33,70.73,.15,61.50,.15,31.76,.22,25.44,.04,90.00